Weather History for Farmingdale, NY

Change the Weather History Date:

Monday, February 4, 2013

  Actual Average Record
Temperature  
Mean Temperature 26 °F -  
Max Temperature 30 °F 38 °F 54 °F (2006)
Min Temperature 23 °F 24 °F 12 °F (2011)
Degree Days  
Heating Degree Days 38    
Moisture  
Dew Point 10 °F    
Average Humidity 49    
Maximum Humidity 75    
Minimum Humidity 36    
Precipitation  
Precipitation 0.00 in - - ()
Sea Level Pressure  
Sea Level Pressure 29.92 in    
Wind  
Wind Speed 11 mph (WNW)    
Max Wind Speed 16 mph    
Max Gust Speed 31 mph    
Visibility 10 miles    
Events Snow    
Averages and records for this station are not official NWS values.
T = Trace of Precipitation, MM = Missing Value Source: NWS Daily Summary

Daily Weather History Graph

Daily Weather History Graph

Search for Another Location

Airport:

Trip Planner

Search our weather history database for the weather conditions in past years. The results will help you decide how hot, cold, wet, or windy it might be!

Date:

Astronomy

Feb. 04, 2013 Rise Set
Actual Time 7:00 AM EST 5:15 PM EST
Civil Twilight 6:31 AM EST 5:44 PM EST
Nautical Twilight 5:59 AM EST 6:16 PM EST
Astronomical Twilight 5:27 AM EST 6:48 PM EST
Moon 1:33 AM EST (2/4) 11:36 AM EST (2/4)
Length of Visible Light 11h 12m
Length of Day
10h 14m
Last Quarter, 37% of the Moon is Illuminated
Feb 4
Last Quarter
Feb 10
New
Feb 17
First Quarter
Feb 25
Full
Mar 4
Last Quarter

Hourly Weather History & Observations

Time (EST) Temp. Windchill Dew Point Humidity Pressure Visibility Wind Dir Wind Speed Gust Speed Precip Events Conditions
12:53 AM 26.1 °F 19.4 °F 19.0 °F 75% 29.80 in 8.0 mi West 5.8 mph - N/A   Overcast
1:53 AM 28.0 °F 17.0 °F 19.9 °F 72% 29.80 in 8.0 mi WNW 13.8 mph 23.0 mph N/A   Overcast
2:53 AM 27.0 °F 14.7 °F 17.1 °F 66% 29.81 in 10.0 mi WNW 16.1 mph 24.2 mph 0.00 in   Overcast
3:53 AM 26.1 °F 13.6 °F 12.9 °F 58% 29.83 in 10.0 mi WNW 16.1 mph 24.2 mph N/A   Clear
5:53 AM 24.1 °F 13.7 °F 9.0 °F 53% 29.89 in 10.0 mi WNW 10.4 mph 26.5 mph N/A   Clear
6:53 AM 23.0 °F 11.1 °F 8.1 °F 53% 29.91 in 10.0 mi NW 12.7 mph 19.6 mph N/A   Clear
7:53 AM 24.1 °F 13.7 °F 7.0 °F 48% 29.94 in 10.0 mi WNW 10.4 mph 26.5 mph N/A   Clear
8:53 AM 26.1 °F 13.6 °F 8.1 °F 47% 29.95 in 10.0 mi WNW 16.1 mph 21.9 mph N/A   Clear
9:53 AM 27.0 °F 17.3 °F 7.0 °F 43% 29.96 in 10.0 mi NW 10.4 mph 24.2 mph N/A   Clear
10:53 AM 28.0 °F 17.0 °F 7.0 °F 41% 29.95 in 10.0 mi WNW 13.8 mph 21.9 mph N/A   Clear
11:53 AM 28.9 °F 18.6 °F 6.1 °F 38% 29.94 in 10.0 mi WNW 12.7 mph 24.2 mph N/A   Clear
12:53 PM 28.9 °F 18.2 °F 6.1 °F 38% 29.92 in 10.0 mi WNW 13.8 mph 26.5 mph N/A   Partly Cloudy
1:53 PM 30.0 °F 19.1 °F 8.1 °F 40% 29.91 in 10.0 mi WNW 15.0 mph 24.2 mph N/A   Partly Cloudy
2:40 PM 30.2 °F 18.9 °F 6.8 °F 37% 29.91 in 10.0 mi West 16.1 mph 31.1 mph N/A   Partly Cloudy
2:53 PM 30.0 °F 18.7 °F 6.1 °F 36% 29.91 in 10.0 mi WNW 16.1 mph 23.0 mph N/A   Clear
3:53 PM 28.9 °F 18.6 °F 7.0 °F 40% 29.91 in 10.0 mi WNW 12.7 mph 20.7 mph N/A   Clear
4:53 PM 28.9 °F 18.2 °F 7.0 °F 40% 29.93 in 10.0 mi West 13.8 mph 20.7 mph N/A   Clear
5:53 PM 28.0 °F 18.6 °F 7.0 °F 41% 29.96 in 10.0 mi West 10.4 mph - N/A   Partly Cloudy
6:53 PM 28.0 °F 19.3 °F 7.0 °F 41% 29.98 in 10.0 mi West 9.2 mph - N/A   Clear
7:53 PM 27.0 °F 20.5 °F 9.0 °F 47% 29.98 in 10.0 mi WSW 5.8 mph - N/A   Clear
8:53 PM 26.1 °F 19.4 °F 9.0 °F 49% 29.99 in 10.0 mi West 5.8 mph - N/A   Clear
9:53 PM 27.0 °F - 10.0 °F 49% 29.98 in 10.0 mi Calm Calm - N/A   Mostly Cloudy
10:53 PM 27.0 °F 21.6 °F 10.9 °F 51% 29.98 in 10.0 mi SW 4.6 mph - N/A   Overcast
11:53 PM 27.0 °F 17.3 °F 17.1 °F 66% 29.99 in 6.0 mi WSW 10.4 mph - 0.00 in Snow Light Snow